Weather History for Tarboro, NC

Change the Weather History Date:

Wednesday, October 31, 2012

  Actual Average Record
Temperature  
Mean Temperature 50 °F -  
Max Temperature 85 °F 69 °F 90 °F (2013)
Min Temperature 40 °F 44 °F 29 °F (1968)
Degree Days  
Heating Degree Days 16    
Moisture  
Dew Point 36 °F    
Average Humidity 66    
Maximum Humidity 85    
Minimum Humidity 43    
Precipitation  
Precipitation 0.00 in - - ()
Sea Level Pressure  
Sea Level Pressure 29.67 in    
Wind  
Wind Speed 7 mph (WSW)    
Max Wind Speed 14 mph    
Max Gust Speed 22 mph    
Visibility 10 miles    
Events      
Averages and records for this station are not official NWS values.
T = Trace of Precipitation, MM = Missing Value Source: NWS Daily Summary

Daily Weather History Graph

Daily Weather History Graph

Search for Another Location

Airport:

Trip Planner

Search our weather history database for the weather conditions in past years. The results will help you decide how hot, cold, wet, or windy it might be!

Date:

Astronomy

Oct. 31, 2012 Rise Set
Actual Time 7:32 AM EDT 6:14 PM EDT
Civil Twilight 7:05 AM EDT 6:41 PM EDT
Nautical Twilight 6:35 AM EDT 7:11 PM EDT
Astronomical Twilight 6:05 AM EDT 7:41 PM EDT
Moon 7:28 PM EDT (10/31) 9:07 AM EDT (10/31)
Length of Visible Light 11h 35m
Length of Day
10h 42m
Full, 97% of the Moon is Illuminated
Oct 31
Full
Nov 6
Last Quarter
Nov 13
New
Nov 20
First Quarter
Nov 28
Full

Hourly Weather History & Observations

Time (EDT) Temp. Windchill Dew Point Humidity Pressure Visibility Wind Dir Wind Speed Gust Speed Precip Events Conditions
12:15 AM 43.9 °F 41.3 °F 36.3 °F 75% 29.59 in 10.0 mi SSW 4.6 mph - N/A   Scattered Clouds
12:35 AM 42.4 °F 39.6 °F 36.0 °F 78% 29.59 in 10.0 mi SSW 4.6 mph - N/A   Scattered Clouds
12:55 AM 41.9 °F 40.0 °F 35.4 °F 78% 29.60 in 10.0 mi SSW 3.5 mph - N/A   Clear
1:15 AM 41.4 °F 38.4 °F 35.1 °F 78% 29.60 in 10.0 mi SSW 4.6 mph - N/A   Clear
1:35 AM 40.8 °F 37.8 °F 34.9 °F 79% 29.60 in 10.0 mi SSW 4.6 mph - N/A   Clear
1:55 AM 40.5 °F 37.3 °F 34.9 °F 80% 29.60 in 10.0 mi SSW 4.6 mph - N/A   Clear
2:15 AM 40.5 °F 36.5 °F 35.6 °F 83% 29.61 in 10.0 mi SSW 5.8 mph - N/A   Clear
2:55 AM 40.8 °F 37.8 °F 35.8 °F 82% 29.61 in 10.0 mi SSW 4.6 mph - N/A   Clear
3:15 AM 40.1 °F 36.1 °F 36.0 °F 85% 29.62 in 10.0 mi SSW 5.8 mph - N/A   Clear
3:35 AM 40.1 °F 36.1 °F 36.0 °F 85% 29.61 in 10.0 mi SSW 5.8 mph - N/A   Clear
3:55 AM 40.1 °F 36.1 °F 36.0 °F 85% 29.62 in 10.0 mi SW 5.8 mph - N/A   Clear
4:15 AM 40.5 °F 35.1 °F 36.0 °F 84% 29.62 in 10.0 mi SSW 8.1 mph - N/A   Clear
4:35 AM 40.8 °F 35.6 °F 35.6 °F 82% 29.63 in 10.0 mi SW 8.1 mph - N/A   Clear
4:55 AM 40.6 °F 36.0 °F 35.4 °F 82% 29.64 in 10.0 mi SSW 6.9 mph - N/A   Clear
5:15 AM 40.5 °F 34.6 °F 35.2 °F 82% 29.64 in 10.0 mi SSW 9.2 mph - N/A   Clear
5:35 AM 40.3 °F 34.9 °F 35.1 °F 82% 29.65 in 10.0 mi SSW 8.1 mph - N/A   Clear
5:55 AM 40.5 °F 34.1 °F 34.9 °F 80% 29.66 in 10.0 mi SSW 10.4 mph - N/A   Clear
6:15 AM 40.6 °F 36.0 °F 34.7 °F 79% 29.66 in 10.0 mi SW 6.9 mph - N/A   Clear
6:35 AM 40.5 °F 34.1 °F 34.7 °F 80% 29.67 in 10.0 mi SW 10.4 mph - N/A   Clear
6:55 AM 40.8 °F 35.0 °F 34.5 °F 78% 29.67 in 10.0 mi SW 9.2 mph - N/A   Clear
7:15 AM 41.0 °F 36.4 °F 34.2 °F 77% 29.67 in 10.0 mi WSW 6.9 mph - N/A   Clear
7:35 AM 40.5 °F 37.3 °F 34.2 °F 78% 29.67 in 10.0 mi SW 4.6 mph - N/A   Clear
7:55 AM 40.1 °F 36.9 °F 34.2 °F 79% 29.68 in 10.0 mi SW 4.6 mph - N/A   Clear
8:15 AM 40.6 °F 36.7 °F 34.7 °F 79% 29.68 in 10.0 mi WSW 5.8 mph - N/A   Clear
8:35 AM 41.9 °F 38.2 °F 34.9 °F 76% 29.69 in 10.0 mi SW 5.8 mph - N/A   Clear
8:55 AM 43.3 °F 39.2 °F 35.2 °F 73% 29.69 in 10.0 mi WSW 6.9 mph - N/A   Clear
9:15 AM 44.4 °F 40.5 °F 35.6 °F 71% 29.69 in 10.0 mi WSW 6.9 mph - N/A   Clear
9:35 AM 46.6 °F - 36.1 °F 67% 29.70 in 10.0 mi WSW 9.2 mph - N/A   Clear
9:55 AM 48.4 °F - 36.3 °F 63% 29.70 in 10.0 mi WSW 8.1 mph - N/A   Clear
10:15 AM 49.8 °F - 36.0 °F 59% 29.70 in 10.0 mi West 10.4 mph 16.1 mph N/A   Clear
10:35 AM 51.3 °F - 35.6 °F 55% 29.69 in 10.0 mi West 11.5 mph 17.3 mph N/A   Clear
10:55 AM 52.5 °F - 35.4 °F 52% 29.69 in 10.0 mi West 13.8 mph - N/A   Clear
11:15 AM 53.8 °F - 35.4 °F 50% 29.69 in 10.0 mi West 10.4 mph 18.4 mph N/A   Clear
11:55 AM 55.4 °F - 35.1 °F 46% 29.67 in 10.0 mi West 12.7 mph 17.3 mph N/A   Clear
12:15 PM 55.8 °F - 35.1 °F 46% 29.67 in 10.0 mi SW 8.1 mph 16.1 mph N/A   Clear
12:35 PM 57.0 °F - 35.2 °F 44% 29.66 in 10.0 mi WSW 12.7 mph 18.4 mph N/A   Clear
12:55 PM 56.7 °F - 35.2 °F 45% 29.66 in 10.0 mi WSW 12.7 mph 20.7 mph N/A   Clear
1:15 PM 56.5 °F - 35.8 °F 46% 29.65 in 10.0 mi WSW 10.4 mph 18.4 mph N/A   Clear
1:35 PM 57.9 °F - 36.1 °F 44% 29.65 in 10.0 mi SW 10.4 mph 18.4 mph N/A   Scattered Clouds
1:55 PM 59.4 °F - 36.5 °F 43% 29.65 in 10.0 mi WSW 12.7 mph 18.4 mph N/A   Mostly Cloudy
2:15 PM 57.7 °F - 35.4 °F 43% 29.64 in 10.0 mi West 13.8 mph - N/A   Mostly Cloudy
2:35 PM 56.8 °F - 35.1 °F 44% 29.64 in 10.0 mi West 12.7 mph 21.9 mph N/A   Mostly Cloudy
2:55 PM 56.3 °F - 35.1 °F 45% 29.65 in 10.0 mi West 12.7 mph 20.7 mph N/A   Mostly Cloudy
3:15 PM 55.8 °F - 35.6 °F 47% 29.65 in 10.0 mi West 13.8 mph 17.3 mph N/A   Overcast
3:35 PM 55.4 °F - 35.6 °F 47% 29.65 in 10.0 mi West 13.8 mph 19.6 mph N/A   Overcast
3:55 PM 55.0 °F - 35.2 °F 47% 29.66 in 10.0 mi West 10.4 mph 17.3 mph N/A   Overcast
4:15 PM 55.4 °F - 35.6 °F 47% 29.66 in 10.0 mi West 10.4 mph - N/A   Overcast
4:35 PM 55.4 °F - 35.4 °F 47% 29.66 in 10.0 mi West 11.5 mph 17.3 mph N/A   Overcast
4:55 PM 55.0 °F - 34.7 °F 46% 29.66 in 10.0 mi West 9.2 mph - N/A   Overcast
5:15 PM 54.3 °F - 35.8 °F 50% 29.67 in 10.0 mi WSW 5.8 mph - N/A   Overcast
5:35 PM 53.4 °F - 36.7 °F 53% 29.68 in 10.0 mi WSW 6.9 mph - N/A   Overcast
5:55 PM 53.1 °F - 37.0 °F 55% 29.69 in 10.0 mi WSW 5.8 mph - N/A   Overcast
6:15 PM 52.7 °F - 37.2 °F 56% 29.69 in 10.0 mi WSW 5.8 mph - N/A   Overcast
6:35 PM 52.3 °F - 37.2 °F 56% 29.70 in 10.0 mi WSW 4.6 mph - N/A   Overcast
6:55 PM 51.4 °F - 37.4 °F 59% 29.71 in 10.0 mi WSW 5.8 mph - N/A   Overcast
7:15 PM 51.3 °F - 37.8 °F 60% 29.71 in 10.0 mi SW 3.5 mph - N/A   Overcast
7:35 PM 50.4 °F - 38.3 °F 63% 29.72 in 10.0 mi SW 3.5 mph - N/A   Overcast
8:15 PM 50.0 °F - 39.4 °F 67% 29.72 in 10.0 mi Calm Calm - N/A   Overcast
8:35 PM 49.3 °F - 39.4 °F 69% 29.74 in 10.0 mi Calm Calm - N/A   Overcast
8:55 PM 47.5 °F - 39.6 °F 74% 29.74 in 10.0 mi West 3.5 mph - N/A   Mostly Cloudy
9:15 PM 46.8 °F - 38.5 °F 73% 29.74 in 10.0 mi WSW 4.6 mph - N/A   Clear
9:35 PM 46.6 °F - 37.6 °F 71% 29.75 in 10.0 mi West 4.6 mph - N/A   Clear
9:55 PM 46.4 °F 44.3 °F 36.9 °F 69% 29.75 in 10.0 mi West 4.6 mph - N/A   Clear
10:15 PM 46.0 °F 44.8 °F 36.9 °F 70% 29.76 in 10.0 mi West 3.5 mph - N/A   Clear
10:35 PM 45.5 °F 44.2 °F 36.7 °F 71% 29.75 in 10.0 mi West 3.5 mph - N/A   Scattered Clouds
10:55 PM 43.7 °F 42.1 °F 37.0 °F 77% 29.76 in 10.0 mi SW 3.5 mph - N/A   Overcast
11:15 PM 44.2 °F - 38.3 °F 80% 29.76 in 10.0 mi Calm Calm - N/A   Overcast
11:35 PM 45.3 °F 44.0 °F 38.1 °F 76% 29.75 in 10.0 mi WSW 3.5 mph - N/A   Mostly Cloudy
11:55 PM 45.0 °F 43.5 °F 37.4 °F 75% 29.76 in 10.0 mi WSW 3.5 mph - N/A   Scattered Clouds